THY2UK LTFM-EGPH

Flight info

Callsign THY2UK
Flight time N/A
Altitude 36000
Route TUDBU Q26 ETUBA DCT AMTOV DCT MOPUG DCT VAJDI DCT GYR DCT DITIS DCT VARIK DCT KATCE DCT BERGI L602 AMGOD DCT MIMVA L602 EMLON M79 TENDO DCT AGPED
Aircraft A321/M-SDE3FGHIRWY/LB1

Departure

Time N/A
Airport İstanbul Airport (LTFM)

Arrival

Time 2026-04-23 19:54
Airport Edinburgh Airport (EGPH)
Time Latitude Longitude Altitude Speed Heading
2026-04-23 19:34 55.23791 -2.29908 31213 ft 444 kts 302°
2026-04-23 19:34 55.26825 -2.39184 28387 ft 429 kts 301°
2026-04-23 19:35 55.28295 -2.43697 27021 ft 422 kts 301°
2026-04-23 19:35 55.29738 -2.48130 25714 ft 415 kts 301°
2026-04-23 19:35 55.31160 -2.52494 24455 ft 409 kts 301°
2026-04-23 19:35 55.32563 -2.56800 23095 ft 403 kts 300°
2026-04-23 19:36 55.33927 -2.60991 21799 ft 396 kts 300°
2026-04-23 19:36 55.35281 -2.65160 20564 ft 388 kts 300°
2026-04-23 19:36 55.36606 -2.69245 19400 ft 381 kts 300°
2026-04-23 19:36 55.37884 -2.73187 18890 ft 356 kts 299°
2026-04-23 19:37 55.39066 -2.76840 18487 ft 332 kts 299°
2026-04-23 19:37 55.40176 -2.80276 18069 ft 320 kts 298°
2026-04-23 19:37 55.41285 -2.83724 17646 ft 325 kts 298°
2026-04-23 19:37 55.42401 -2.87196 17238 ft 326 kts 298°
2026-04-23 19:38 55.43510 -2.90651 16804 ft 322 kts 298°
2026-04-23 19:38 55.44604 -2.94074 16380 ft 319 kts 298°
2026-04-23 19:38 55.45691 -2.97478 15963 ft 317 kts 298°
2026-04-23 19:38 55.46769 -3.00853 15548 ft 315 kts 298°
2026-04-23 19:39 55.47823 -3.04155 15146 ft 312 kts 298°
2026-04-23 19:39 55.48885 -3.07488 14743 ft 310 kts 298°
2026-04-23 19:39 55.49935 -3.10793 14319 ft 308 kts 298°
2026-04-23 19:39 55.50978 -3.14081 13876 ft 306 kts 298°
2026-04-23 19:40 55.52013 -3.17337 13466 ft 303 kts 298°
2026-04-23 19:40 55.53041 -3.20579 13063 ft 302 kts 298°
2026-04-23 19:40 55.54092 -3.23793 12671 ft 308 kts 302°
2026-04-23 19:40 55.55605 -3.26565 12256 ft 321 kts 325°
2026-04-23 19:41 55.57668 -3.28069 11849 ft 324 kts 349°
2026-04-23 19:41 55.59914 -3.28522 11459 ft 325 kts 354°
2026-04-23 19:41 55.62164 -3.28833 11063 ft 324 kts 354°
2026-04-23 19:41 55.64406 -3.29132 10684 ft 320 kts 354°
2026-04-23 19:42 55.66614 -3.29425 10295 ft 315 kts 354°
2026-04-23 19:42 55.68786 -3.29711 9870 ft 311 kts 354°
2026-04-23 19:42 55.70923 -3.29994 9453 ft 306 kts 355°
2026-04-23 19:42 55.73036 -3.30278 9039 ft 302 kts 354°
2026-04-23 19:43 55.75128 -3.30562 8626 ft 299 kts 354°
2026-04-23 19:43 55.77190 -3.30839 8228 ft 295 kts 354°
2026-04-23 19:43 55.79198 -3.31107 7898 ft 290 kts 354°
2026-04-23 19:43 55.81131 -3.31845 7600 ft 281 kts 333°
2026-04-23 19:44 55.82632 -3.33931 7322 ft 272 kts 306°
2026-04-23 19:44 55.83382 -3.36925 7032 ft 263 kts 277°
2026-04-23 19:44 55.83232 -3.40095 6762 ft 256 kts 250°
2026-04-23 19:44 55.82576 -3.42990 6502 ft 250 kts 245°
2026-04-23 19:45 55.81873 -3.45779 6230 ft 244 kts 244°
2026-04-23 19:45 55.81176 -3.48508 5996 ft 239 kts 244°
2026-04-23 19:45 55.80498 -3.51168 5737 ft 234 kts 244°
2026-04-23 19:45 55.79834 -3.53760 5514 ft 225 kts 244°
2026-04-23 19:46 55.79203 -3.56235 5314 ft 215 kts 244°
2026-04-23 19:46 55.78596 -3.58616 5053 ft 208 kts 244°
2026-04-23 19:46 55.78004 -3.60925 4787 ft 203 kts 244°
2026-04-23 19:46 55.77432 -3.63186 4577 ft 199 kts 245°
2026-04-23 19:47 55.76870 -3.65448 4442 ft 201 kts 247°
2026-04-23 19:47 55.76736 -3.67891 4316 ft 204 kts 282°
2026-04-23 19:47 55.77462 -3.70042 4196 ft 208 kts 314°
2026-04-23 19:47 55.78638 -3.71516 4095 ft 209 kts 333°
2026-04-23 19:48 55.80038 -3.72252 4011 ft 210 kts 353°
2026-04-23 19:48 55.81484 -3.72136 4000 ft 210 kts 12°
2026-04-23 19:48 55.82842 -3.71186 4004 ft 211 kts 32°
2026-04-23 19:48 55.83931 -3.69516 4001 ft 209 kts 52°
2026-04-23 19:49 55.84725 -3.67348 3837 ft 208 kts 59°
2026-04-23 19:49 55.85471 -3.65172 3579 ft 205 kts 60°
2026-04-23 19:49 55.86212 -3.63008 3307 ft 204 kts 60°
2026-04-23 19:49 55.86945 -3.60870 3038 ft 199 kts 59°
2026-04-23 19:50 55.87652 -3.58808 2779 ft 191 kts 61°
2026-04-23 19:50 55.88328 -3.56832 2522 ft 183 kts 61°
2026-04-23 19:50 55.88971 -3.54953 2288 ft 170 kts 61°
2026-04-23 19:50 55.89557 -3.53239 2055 ft 154 kts 60°
2026-04-23 19:51 55.90098 -3.51655 1847 ft 146 kts 61°
2026-04-23 19:51 55.90610 -3.50152 1660 ft 137 kts 61°
2026-04-23 19:51 55.91100 -3.48717 1468 ft 133 kts 61°
2026-04-23 19:51 55.91578 -3.47313 1296 ft 131 kts 61°
2026-04-23 19:52 55.92050 -3.45927 1099 ft 131 kts 60°
2026-04-23 19:52 55.92516 -3.44555 921 ft 128 kts 60°
2026-04-23 19:52 55.92983 -3.43190 731 ft 127 kts 61°
2026-04-23 19:52 55.93442 -3.41837 549 ft 128 kts 60°
2026-04-23 19:53 55.93905 -3.40476 383 ft 128 kts 59°
2026-04-23 19:53 55.94366 -3.39118 223 ft 128 kts 59°
2026-04-23 19:53 55.94815 -3.37798 115 ft 116 kts 59°
2026-04-23 19:53 55.95156 -3.36786 114 ft 71 kts 59°
2026-04-23 19:54 55.95349 -3.36219 110 ft 45 kts 59°
2026-04-23 19:54 55.95489 -3.35803 113 ft 34 kts 59°
2026-04-23 19:54 55.95570 -3.35525 113 ft 10 kts 99°
2026-04-23 19:54 55.95518 -3.35460 113 ft 9 kts 149°
2026-04-23 19:55 55.95486 -3.35426 113 ft 4 kts 148°
2026-04-23 19:55 55.95468 -3.35406 112 ft 5 kts 150°
2026-04-23 19:55 55.95424 -3.35424 112 ft 10 kts 233°
2026-04-23 19:55 55.95377 -3.35564 113 ft 15 kts 239°
2026-04-23 19:56 55.95326 -3.35715 114 ft 14 kts 239°
2026-04-23 19:56 55.95281 -3.35847 115 ft 13 kts 238°
2026-04-23 19:56 55.95239 -3.35969 115 ft 11 kts 239°
2026-04-23 19:56 55.95196 -3.36098 114 ft 13 kts 239°
2026-04-23 19:57 55.95126 -3.36157 113 ft 13 kts 139°
2026-04-23 19:57 55.95095 -3.36008 112 ft 11 kts 110°
2026-04-23 19:57 55.95066 -3.35901 114 ft 8 kts 118°
2026-04-23 19:57 55.95044 -3.35911 113 ft 3 kts 245°
2026-04-23 19:58 55.95037 -3.35942 113 ft 2 kts 247°
2026-04-23 19:58 55.95028 -3.35975 114 ft 4 kts 244°
2026-04-23 19:58 55.95018 -3.36011 115 ft 1 kts 245°
2026-04-23 19:58 55.95018 -3.36013 115 ft 0 kts 245°
2026-04-23 19:59 55.95016 -3.36018 115 ft 0 kts 244°
2026-04-23 19:59 55.95016 -3.36021 116 ft 0 kts 244°